Regional Weather Roundup
Issued by NWS Dallas/Fort Worth, TX

Home | Current Version | Previous Version | Text Only | Print | Product List | Glossary On
Versions: 1 2 3 4 5 6 7 8 9 10 11 12 13 14 15 16 17 18 19 20 21 22 23 24 25 26 27 28 29 30 31 32 33 34 35 36 37 38 39 40 41 42 43 44 45 46 47 48 49 50
000
ASUS44 KFWD 191015
RWRFWD
NORTH TEXAS HOURLY WEATHER ROUNDUP
NATIONAL WEATHER SERVICE FORT WORTH TX
500 AM CDT MON AUG 19 2019

NOTE: "FAIR" INDICATES FEW OR NO CLOUDS BELOW 12,000 FEET WITH NO
SIGNIFICANT WEATHER AND/OR OBSTRUCTIONS TO VISIBILITY.

TXZ118-119-191100-
DALLAS/FORT WORTH METROPLEX

CITY           SKY/WX    TMP DP  RH WIND       PRES   REMARKS
DFW AIRPORT    PTCLDY    83  72  69 S10       29.91R
DALLAS LOVE    PTCLDY    83  72  69 S6        29.92S
FTW MEACHAM    CLEAR     82  71  69 S14       29.92R
DAL-EXECUTIVE  CLEAR     81  71  71 S12       29.92S
FTW-ALLIANCE   PTCLDY    83  72  69 S9        29.92R
FTW-NAS-JRB    CLEAR     84  70  62 S13       29.92R
FTW-SPINKS     CLEAR     81  71  71 S9        29.94S
ARLINGTON      CLEAR     83  72  69 S9        29.92S
GRAND PRAIRIE  CLEAR     83  70  65 S8        29.93S
ADDISON        CLEAR     83  72  69 S7        29.94S
MESQUITE       CLEAR     78  73  85 S7        29.94R
LANCASTER      CLEAR     80  72  76 S6        29.94S
$$

TXZ091>094-102>105-117-120-121-131>134-191100-
NORTH CENTRAL TEXAS

CITY           SKY/WX    TMP DP  RH WIND       PRES   REMARKS
SHRMAN/DENISON PTCLDY    82  74  76 S9        29.95R
GAINESVILLE    PTCLDY    78  71  78 CALM      29.95R
BOWIE          CLEAR     79  70  73 S7        29.93S
BRIDGEPORT     CLEAR     82  68  62 S8        29.94R
DECATUR        CLEAR     82  70  65 S10       29.94R
DENTON         PTCLDY    83  72  69 S7        29.93R
MCKINNEY       CLEAR     81  72  74 S7        29.93S
BONHAM         CLEAR     80  74  81 S8        29.94R
GREENVILLE     CLEAR     81  75  83 SE6       29.95R
ROCKWALL       CLEAR     80  73  78 S8        29.94S
WAXAHACHIE     CLEAR     79  72  79 S6        29.95S
CLEBURNE       CLEAR     81  73  78 S10       29.95F
GRANBURY       CLEAR     83  69  62 SE8       29.94R
$$

TXZ083>090-098>101-113>116-127>130-139>142-154-155-191100-
WESTERN NORTH TEXAS

CITY           SKY/WX    TMP DP  RH WIND       PRES   REMARKS
WICHITA FALLS  CLEAR     81  68  64 S12       29.89R
WF-KICKAPOO    CLEAR     81  67  62 S8        29.92R
VERNON           N/A    N/A N/A N/A MISG      29.88S
ABILENE        NOT AVBL
ABILENE-DYESS  CLEAR     80  63  56 S12       29.94R
GRAHAM         CLEAR     82  68  63 CALM      29.92R
BRECKENRIDGE   CLEAR     83  66  57 S10       29.92R
CISCO          CLEAR     77  68  73 S8        29.96R
EASTLAND       CLEAR     75  66  73 SE6       29.95R
RANGER         CLEAR     79  66  64 S7        29.95S
MINERAL WELLS  CLEAR     77  68  73 SE7       29.92R
STEPHENVILLE   CLEAR     78  68  71 S6        29.98R
COMANCHE       CLEAR     78  68  70 S9        29.96S
BROWNWOOD      PTCLDY    79  66  65 SE8       29.97R
COLEMAN        CLEAR     78  67  68 MISG      29.96S
BRADY          CLEAR     79  68  69 S7        29.97R
$$

TXZ143>147-156>162-174-175-191100-
CENTRAL TEXAS

CITY           SKY/WX    TMP DP  RH WIND       PRES   REMARKS
WACO           CLEAR     80  73  79 S13       29.95R
WACO-MCGREGOR  CLEAR     79  74  84 S7        29.96R
HILLSBORO      CLEAR     81  73  76 S8        29.95R
CORSICANA      CLEAR     79  74  84 S8        29.96R
MEXIA          PTCLDY    78  73  85 S8        29.95R
HEARNE         PTCLDY    77  77  99 SE3       29.96S
CAMERON        CLEAR     79  76  90 S5        29.95R
TEMPLE         PTCLDY    79  77  94 S13       29.96R
KILLEEN        CLEAR     78  72  82 S9        29.95R
KILLEEN-SKYLRK PTCLDY    79  74  84 MISG      29.96R
FORT HOOD      PTCLDY    79  73  82 S8        29.92R
GATESVILLE     CLEAR     79  70  73 SE5       29.98R
HAMILTON       CLEAR     77  69  75 S9        29.97S
LAMPASAS       CLEAR     77  70  79 S5        29.96R
$$

TXZ095>097-106>112-122>126-135>138-148>153-164>167-191100-
EAST TEXAS

CITY           SKY/WX    TMP DP  RH WIND       PRES   REMARKS
PARIS          CLEAR     77  74  90 SE6       29.95R
SULPHUR SPRNGS CLEAR     82  76  83 S7        29.97S
MOUNT PLEASANT CLEAR     76  73  91 CALM      29.97R
GILMER         MOCLDY    78  75  89 CALM      29.97R
MINEOLA        CLEAR     79  75  89 CALM      29.96R
TYLER          CLEAR     80  76  87 S7        29.96R
LONGVIEW       CLEAR     79  77  94 S5        29.96R
MARSHALL       CLEAR     75  73  91 MISG      29.98S
ATHENS         CLOUDY    79  73  83 CALM      29.96R
PALESTINE      CLEAR     79  76  90 S3        29.98R
JACKSONVILLE   CLEAR     77  76  95 MISG      30.00R
HENDERSON      CLEAR     78  75  91 CALM      29.98R
CENTER         SUNNY     76  74  93 CALM      29.99R
NACOGDOCHES    CLEAR     76  76 100 E3        29.99R
LUFKIN         CLEAR     77  75  93 SE5       29.97R
$$

SUPPLEMENTAL OBSERVATIONS (NWS FORT WORTH AREA)

CITY           SKY/WX    TMP DP  RH WIND       PRES   REMARKS
CADDO GRASSLND   N/A     81  73  78 S5          N/A
LBJ GRASSLAND    N/A     81  70  69 SE5         N/A
POSSUM KINGDOM   N/A     82  68  61 S6          N/A
GRANBURY         N/A     82  68  61 SE9         N/A
COMANCHE         N/A     79  66  65 S9          N/A
MCGREGOR         N/A     79  72  78 S6G16       N/A
TEMPLE           N/A     79  73  83 S6          N/A
LAKE LIMESTONE   N/A     79  77  94 S3          N/A
PALESTINE        N/A     79  75  89 CALM        N/A
$$

SUPPLEMENTAL OBSERVATIONS (NWS NORMAN AREA)

CITY           SKY/WX    TMP DP  RH WIND       PRES   REMARKS
GOODLETT         N/A     80  62  53 N17       29.87
ODELL            N/A     84  65  51 SE10      29.87
CROWELL          N/A     84  64  50 S13       29.87
KNOX CITY        N/A     82  64  54 S2        29.91
SEYMOUR          N/A     80  64  56 SE9       29.90
MILLERS CREEK    N/A     81  63  54 S6G16       N/A
$$

SUPPLEMENTAL OBSERVATIONS (NWS SAN ANGELO AREA)

CITY           SKY/WX    TMP DP  RH WIND       PRES   REMARKS
WEINERT          N/A     84  63  49 S13       29.91
HASKELL          N/A     82  62  50 S8        29.91
THROCKMORTON     N/A     80  66  62 S7        29.92
STAMFORD         N/A     81  64  56 S7        29.93
CLYDE            N/A     77  66  68 S12       29.97
HAMBY            N/A     81  64  57 S12         N/A
IVIE RESERVOIR   N/A     81  70  69 E6          N/A
COLORADO BEND    N/A     79  68  69 S9          N/A
$$

SUPPLEMENTAL OBSERVATIONS (NWS SHREVEPORT AREA)

CITY           SKY/WX    TMP DP  RH WIND       PRES   REMARKS
TEXARKANA        N/A     73  72  94 CALM        N/A
LINDEN           N/A     75  72  88 CALM        N/A
CADDO LAKE       N/A     75  72  88 CALM        N/A
LUFKIN           N/A     77  73  88 MISG        N/A
N SABINE NF      N/A     75  72  88 MISG        N/A
$$

SUPPLEMENTAL OBSERVATIONS ARE A COLLECTION OF AUTOMATED INSTRUMENTS
THAT ARE MAINTAINED BY A VARIETY OF FEDERAL AND STATE AGENCIES.
CERTAIN ELEMENTS...SUCH AS HUMIDITY VALUES AND SUSTAINED WIND
SPEEDS...MAY BE APPROXIMATED.




USA.gov is the U.S. government's official web portal to all federal, state and local government web resources and services.